Simultaneous Nadir Overpasses (SNOs) Predictions

Prediction of SNOs between AQUA and METOP-B Satellite Orbit:

Table of predicted SNOs for the next 14.0 days since TLE Epoch: 5/18/2018
Index Date (AQUA) Time (AQUA) Lat,Lon (AQUA) SZA (AQUA ) Date (METOP-B) Time (METOP-B) Lat,Lon (METOP-B) SZA (METOP-B ) Distance(km) Time Diff (sec)
1 05/19/2018 12:19:49 73.91, -10.72 54.07 05/19/2018 12:18:49 73.91, -10.66 54.07 1.91 60
2 05/19/2018 13:09:15 -73.96, 156.80 125.89 05/19/2018 13:09:30 -73.97, 156.81 125.88 0.47 15
3 05/19/2018 13:58:51 74.42, -36.63 54.60 05/19/2018 13:59:59 74.43, -34.70 54.55 57.66 68
4 05/22/2018 07:54:01 73.87, 55.80 53.45 05/22/2018 07:53:09 73.89, 55.70 53.48 3.32 52
5 05/22/2018 08:43:28 -73.98,-136.79 126.45 05/22/2018 08:43:50 -73.95,-136.82 126.47 3.04 22
6 05/22/2018 09:33:10 74.70, 29.14 54.32 05/22/2018 09:34:14 74.70, 32.43 54.23 96.58 64
7 05/25/2018 03:28:15 73.90, 122.18 52.95 05/25/2018 03:27:29 73.92, 122.18 52.98 2.10 46
8 05/25/2018 04:17:42 -73.99, -70.39 126.96 05/25/2018 04:18:10 -73.98, -70.34 126.97 1.98 28
9 05/27/2018 23:02:29 73.93,-171.44 52.50 05/27/2018 23:01:49 73.94,-171.35 52.52 3.35 40
10 05/27/2018 23:51:55 -73.97, -3.88 127.47 05/27/2018 23:52:31 -73.96, -3.99 127.47 3.20 36
11 05/30/2018 18:36:41 73.91,-104.97 52.06 05/30/2018 18:36:09 73.92,-105.00 52.07 1.24 32
12 05/30/2018 19:26:08 -74.00, 62.49 127.86 05/30/2018 19:26:50 -73.99, 62.49 127.88 1.07 42




NCC Satellite Simultaneous Nadir Overpasses (SNOs) Prediction Service
